Location: Monroe
(41.9160°N, 83.3980°W)
Time: 08:33:52
(UTC-04:00)

Daily predictions for brighter satellites

Satellite Brightness Start Highest point End
(mag) Time Altitude Azimuth Time Altitude Azimuth Time Altitude Azimuth
Meteor 2-3 Rocket 4.0 21:21:59 10° SSE 21:27:28 50° E 21:32:57 10° NNE
Meteor 1-26 Rocket 4.3 21:22:26 10° N 21:28:03 64° ENE 21:33:44 10° SSE
Helios 1B rocket 2.9 21:27:52 10° NNE 21:31:45 40° E 21:35:36 10° S
Cosmos 1634 Rocket 4.4 21:27:11 10° N 21:33:13 46° ENE 21:39:15 10° SSE
Cosmos 2082 Rocket 3.6 21:29:27 10° NW 21:34:37 38° WSW 21:39:48 10° S
ATLAS 3B R/B 4.3 21:28:18 10° WSW 21:35:16 42° NW 21:41:58 10° NNE
H-2A R/B 3.8 21:33:45 10° ESE 21:37:12 18° ENE 21:40:37 10° NNE
Cosmos 1937 Rocket 3.5 21:34:35 10° SSW 21:39:43 90° NW 21:44:54 10° NNE
Lacrosse 4 Rocket 3.6 21:37:40 10° N 21:40:27 16° NE 21:43:11 10° E
CZ-4B DEB 3.2 21:38:10 10° SE 21:40:55 38° ENE 21:43:41 10° N
SL-19 R/B 4.5 21:37:14 10° SSE 21:42:56 89° ENE 21:49:07 10° NNW
Cosmos 1408 4.1 21:42:17 10° SE 21:45:01 20° E 21:47:46 10° NE
Cosmos 1833 Rocket 4.3 21:40:49 10° NW 21:45:44 32° WSW 21:50:39 10° SSW
Meteor 1-29 3.3 21:43:25 10° NNE 21:46:48 44° E 21:50:08 10° S
Cosmos 2150 Rocket 4.2 21:42:26 10° SSW 21:47:49 81° WNW 21:53:09 10° NNE
Cosmos 2298 Rocket 4.4 21:42:50 10° SSW 21:48:06 71° WNW 21:53:25 10° NNE
Cosmos 1825 3.6 21:45:47 10° SE 21:48:37 21° E 21:51:30 10° NE
Cosmos 1315 Rocket 4.2 21:44:47 10° SSW 21:48:38 43° WNW 21:52:33 10° N
Shenzhou-11 Module 2.7 21:49:48 10° W 21:52:44 43° SSW 21:55:05 14° SE
Resurs 01 Rocket 3.7 21:50:49 10° SSW 21:54:35 27° W 21:58:23 10° NW
Molniya-1 2.9 21:59:29 10° S 22:02:55 - NE 22:01:01 28° SE
Helios 1A 3.2 21:57:01 10° S 22:01:10 72° WSW 22:05:24 10° NNW
Cosmos 1892 3.3 21:59:14 10° SSW 22:03:02 60° W 22:06:51 10° N
COSMOS 2455 2.8 22:00:23 10° SSW 22:06:21 76° ESE 22:12:24 10° NNE
MetOp-A 4.4 22:01:47 12° SSE 22:06:38 56° ENE 22:11:52 10° N
ERS-1 Rocket 3.0 22:03:26 11° SSE 22:08:15 67° ENE 22:13:16 10° N
Cosmos 2279 Rocket 4.3 22:02:14 10° N 22:08:19 50° ENE 22:13:33 14° SSE
Cosmos 1943 Rocket 2.5 22:06:37 10° S 22:11:50 42° ESE 22:17:02 10° NE
Cosmos 2142 Rocket 4.4 22:07:19 10° N 22:13:29 83° E 22:19:38 10° S
Cosmos 2263 4.3 22:09:27 10° S 22:15:04 57° ESE 22:20:42 10° NNE
Aureole 1 4.4 22:12:32 10° SSW 22:15:31 75° WNW 22:18:56 10° NNE
NOAA 11 4.2 22:13:36 11° SSE 22:18:47 84° ENE 22:24:19 10° NNW
Milstar 3 4.2 22:14:03 10° SW 22:23:19 28° S 22:27:31 18° SE
Cosmos 1340 3.2 22:20:36 10° N 22:24:13 41° ENE 22:25:59 25° SE
USA 215 3.3 22:19:36 17° SE 22:24:54 84° NE 22:31:30 10° NW
Okean 1-7 3.0 22:21:18 10° N 22:25:45 89° WSW 22:29:17 16° S
Lacrosse 5 rocket 0.9 22:25:15 10° SW 22:28:49 88° SE 22:32:29 10° NE
Cosmos 2369 Rocket 2.3 22:23:53 10° SSW 22:29:32 80° WNW 22:35:16 10° NNE
Cosmos 1703 Rocket 4.5 22:29:58 10° NNW 22:34:14 47° W 22:38:25 10° SSW
SPOT 1/Viking Rocket 3.9 22:31:51 22° SE 22:34:58 51° ENE 22:40:00 10° N
Cosmos 1606 2.6 22:31:22 10° N 22:35:10 89° E 22:37:22 24° S
SL-08 RB Rocket 3.8 22:35:00 23° SSE 22:37:49 67° ENE 22:42:28 10° N
DNEPR-1 R/B 3.7 22:32:42 10° SSW 22:37:59 72° ESE 22:42:30 10° NE
GEOS 3 Rocket 4.5 22:38:07 19° ESE 22:41:24 40° NE 22:46:16 10° NNW
ISS -3.1 22:40:37 10° WSW 22:43:48 54° NNW 22:47:01 10° NE
Meteor 1-10 Rocket 4.5 22:39:43 10° NNW 22:45:40 76° W 22:50:18 17° S
Cosmos 1269 Rocket 4.0 22:40:31 10° NNW 22:45:50 79° ENE 22:48:45 27° SSE
Meteor 1-27 Rocket 3.8 22:40:14 10° N 22:45:59 66° ENE 22:49:13 26° SSE
Cosmos 372 Rocket 3.8 22:41:54 10° SSW 22:47:02 82° ESE 22:52:10 10° NNE
Cosmos 1733 Rocket 3.3 22:45:53 31° SE 22:47:29 47° E 22:51:38 10° NNE
Terra 2.7 22:49:48 26° ESE 22:51:31 34° ENE 22:55:49 10° N
CENTAUR R/B 2.5 22:46:54 10° SW 22:52:54 89° WNW 22:59:49 10° NE
Cosmos 1125 Rocket 3.7 22:47:42 10° SSW 22:52:58 75° WNW 22:58:12 10° NNE
Nimbus 7 Rocket 4.4 22:49:44 10° NNE 22:55:37 66° ESE 22:59:42 20° S
ATLAS 5 CENTAUR R/B 2.4 22:49:58 10° NNW 22:55:59 81° NE 22:59:28 29° SE
Cosmos 1437 4.3 22:55:01 10° NNE 22:57:24 23° ENE 22:57:24 23° ENE
Tiangong 2 2.9 22:55:31 10° W 22:57:47 21° SW 22:57:47 21° SW
SPOT 5 3.3 22:58:43 23° S 23:02:05 70° WSW 23:07:23 10° NNW
GPS 2-04 Rocket1 4.0 23:03:11 10° WSW 23:05:16 23° SW 23:05:16 23° SW
Cosmos 1782 4.3 23:03:47 10° NNW 23:07:22 32° W 23:09:54 16° SSW
ARGOS 3.8 23:06:21 20° S 23:09:56 51° W 23:15:10 10° NNW
Cosmos 1867 4.3 23:05:28 10° NNW 23:10:41 44° NE 23:12:56 29° ESE
Cosmos 1656 Rocket 3.6 23:10:03 31° S 23:12:29 59° ESE 23:17:55 10° NNE
H-2A R/B 2.3 23:13:15 29° S 23:16:03 68° WSW 23:21:24 10° NNW
Lacrosse 4 Rocket 1.6 23:15:11 10° NNW 23:19:40 70° WSW 23:20:44 49° S
CARTOSAT-1 3.6 23:19:18 52° SE 23:20:07 65° ENE 23:24:25 10° N
Cosmos 1674 Rocket 3.4 23:19:41 10° N 23:24:03 89° E 23:24:54 57° S
CZ-4 R/B 4.5 23:19:48 10° NNE 23:23:54 35° E 23:23:54 35° E
Cosmos 1825 4.3 23:20:57 10° SW 23:24:05 24° WNW 23:27:13 10° NNW
Cosmos 1378 Rocket 3.8 23:21:16 10° N 23:25:36 50° E 23:26:03 48° E
Cosmos 1862 4.4 23:24:27 23° SW 23:26:31 42° WNW 23:30:20 10° N
Cosmos 494 Rocket 4.0 23:22:32 10° NNW 23:27:45 67° ENE 23:29:03 48° SE
Cosmos 1092 Rocket 3.9 23:27:20 35° S 23:30:06 80° E 23:36:16 10° N
ATLAS CENTAUR R/B 3.3 23:33:00 17° ENE 23:33:00 17° ENE 23:34:04 10° NE
Nadezhda 4 Rocket 4.1 23:27:53 22° SSW 23:32:01 71° W 23:38:12 10° N
H-2A R/B 2.0 23:37:08 60° E 23:37:15 60° ENE 23:41:19 10° N
Cosmos 2227 Rocket 3.9 23:32:53 10° N 23:37:15 22° NE 23:39:30 18° E
Cosmos 2219 3.4 23:36:24 10° NNW 23:42:08 62° ENE 23:43:36 47° ESE
CZ-2C R/B 4.3 23:38:59 10° NE 23:41:46 18° E 23:41:46 18° E
CZ-4B R/B 3.8 23:41:27 10° NNE 23:46:05 46° E 23:46:05 46° E
Cosmos 1812 3.3 23:42:50 10° N 23:46:07 48° NE 23:46:07 48° NE
CZ-4C R/B 4.1 23:53:17 44° ENE 23:53:17 44° ENE 23:57:08 10° N
Okean 3 3.5 23:51:19 10° NNW 23:55:29 66° W 23:55:33 66° WSW
